User: anonymous   Login
Location: Unspecified
(0.0000°N, 0.0000°E)
Time: 02:06:46
(UTC+00:00)
Language:

Sich 1 - Orbit

View from above orbital plane
View from above orbital plane
View from above satellite
View from above satellite

Ground track
Ground track

The orbit data is extracted from the following two-line orbital elements,

1 23657U 95046A   18055.48010527  .00000191  00000-0  19056-4 0  9999
2 23657  82.5276  23.7751 0021420 330.6466  29.3545 14.85932996214941
Epoch (UTC): 24 February 2018 11:31:21
Eccentricity: 0.0021420
inclination: 82.5276°
perigee height: 595 km
apogee height: 625 km
right ascension of ascending node: 23.7751°
argument of perigee: 330.6466°
revolutions per day: 14.85932996
mean anomaly at epoch: 29.3545°
orbit number at epoch: 21494

The dashed part of the orbit path shows where the satellite is in the earth's shadow,  

DLR